ENMVJD Weather Reports


time (UTC)temp
F
wind
direction
speed
knots
gust
knots
rain 1hr
in
rain 24hr
in
rain mn
in
humidity
%
barometer
mb
20260906100823 72 360 0.0 0.0 0.00 0.00 0.00 91 1006.1
20260906095841 72 67 0.0 0.0 0.00 0.00 0.00 91 1006.0
20260906094823 72 67 0.0 0.0 0.00 0.00 0.00 91 1006.2
20260906093842 72 67 0.0 0.0 0.00 0.00 0.00 90 1006.4
20260906092825 72 67 0.0 0.0 0.00 0.00 0.00 91 1006.3
20260906091825 72 67 0.0 0.0 0.00 0.00 0.00 91 1006.1
20260906090824 72 67 0.0 0.0 0.00 0.00 0.00 91 1006.0
20260906084840 72 67 0.0 0.0 0.00 0.00 0.00 91 1005.7
20260906083924 72 67 0.0 0.0 0.00 0.00 0.00 90 1005.7
20260906082022 72 67 0.0 0.0 0.00 0.00 0.00 90 1005.7
20260906081023 72 67 0.0 0.0 0.00 0.00 0.00 89 1005.7
20260906080023 72 67 0.0 0.0 0.00 0.00 0.00 89 1005.7
20260906075024 73 67 0.0 0.0 0.00 0.00 0.00 90 1005.5
20260906074025 73 67 0.0 0.0 0.00 0.00 0.00 90 1005.5
20260906073122 73 67 0.0 0.0 0.00 0.00 0.00 90 1005.8
20260906072124 73 67 0.0 0.0 0.00 0.00 0.00 89 1005.7
20260906071124 73 67 0.0 0.0 0.00 0.00 0.00 90 1005.8
20260906070222 73 67 0.0 0.0 0.00 0.00 0.00 89 1005.8
20260906063323 73 67 0.0 0.0 0.00 0.00 0.00 90 1006.1
20260906062323 73 67 0.0 0.0 0.00 0.00 0.00 90 1006.2
20260906061323 73 67 0.0 0.0 0.00 0.00 0.00 90 1006.1
20260906060325 73 67 0.0 0.0 0.00 0.00 0.00 91 1006.2
20260906054323 73 67 0.0 0.0 0.00 0.00 0.00 91 1006.5
20260906053340 73 67 0.0 0.0 0.00 0.00 0.00 91 1006.5
20260906052323 73 67 0.0 0.0 0.00 0.00 0.00 90 1006.6
20260906051422 73 67 0.0 0.0 0.00 0.00 0.00 91 1006.5
20260906050425 73 67 0.0 0.0 0.00 0.00 0.00 89 1006.4
20260906045424 74 67 0.0 0.0 0.00 0.00 0.00 90 1006.6
20260906044422 74 67 0.0 0.0 0.00 0.00 0.00 90 1006.6
20260906043441 74 67 0.0 0.0 0.00 0.00 0.00 89 1006.7
20260906042522 74 67 0.0 0.0 0.00 0.00 0.00 88 1006.9
20260906041621 74 67 0.0 0.0 0.00 0.00 0.00 89 1006.9
20260906040640 74 67 0.0 0.0 0.00 0.00 0.00 89 1006.9
20260906035720 74 67 0.0 0.0 0.00 0.00 0.00 89 1007.0
20260906034718 74 67 0.0 0.0 0.00 0.00 0.00 88 1006.9
20260906033717 74 67 0.0 0.0 0.00 0.00 0.00 88 1007.1
20260906032717 75 67 0.0 0.0 0.00 0.00 0.00 88 1007.1
20260906031815 75 67 0.0 0.0 0.00 0.00 0.00 87 1007.1
20260906030818 75 67 0.0 0.0 0.00 0.00 0.00 87 1007.1
20260906025818 75 67 0.0 0.0 0.00 0.00 0.00 86 1007.3
20260906024817 75 67 0.0 0.0 0.00 0.00 0.00 87 1007.5
20260906023817 75 67 0.0 0.0 0.00 0.00 0.00 85 1007.6
20260906022818 76 67 0.0 0.0 0.00 0.00 0.00 86 1007.6
20260906021832 75 67 0.0 0.0 0.00 0.00 0.00 86 1007.8
20260906020834 75 67 0.0 0.0 0.00 0.00 0.00 85 1007.6
20260906015917 76 67 0.0 0.0 0.00 0.00 0.00 86 1007.6
20260906014919 75 67 0.0 0.0 0.00 0.00 0.00 85 1007.3
20260906013917 76 67 0.0 0.0 0.00 0.00 0.00 84 1007.1
20260906012916 76 67 0.0 0.0 0.00 0.00 0.00 84 1007.0
20260906011917 76 67 0.0 0.0 0.00 0.00 0.00 82 1006.6
20260906010934 76 67 0.0 0.0 0.00 0.00 0.00 82 1006.1
20260906010017 76 67 0.0 0.0 0.00 0.00 0.00 83 1006.1
20260906004115 77 67 0.0 0.0 0.00 0.00 0.00 83 1005.6
20260906002133 76 67 0.0 0.0 0.00 0.00 0.00 84 1005.8
20260906001118 76 67 0.0 0.0 0.00 0.00 0.00 86 1006.0
20260905235118 76 45 0.0 0.9 0.00 0.00 0.00 86 1006.4
20260905234216 77 45 0.0 0.0 0.00 0.00 0.00 84 1006.4
20260905232217 80 90 0.0 0.9 0.00 0.00 0.00 74 1006.0
20260905231316 80 135 0.0 0.0 0.00 0.00 0.00 73 1005.7
20260905225317 80 337 0.0 0.0 0.00 0.00 0.00 71 1005.4
20260905224317 80 337 0.0 0.0 0.00 0.00 0.00 72 1005.5
20260905223317 80 270 0.0 0.0 0.00 0.00 0.00 69 1005.5
20260905220214 97 307 1.7 4.3 0.00 0.00 0.00 49 1005.6
20260905215215 99 337 0.9 1.7 0.00 0.00 0.00 47 1004.8
20260905214214 98 135 0.0 0.0 0.00 0.00 0.00 47 1004.6
20260905212215 99 315 0.0 0.0 0.00 0.00 0.00 47 1004.4
20260905211312 99 270 0.0 0.9 0.00 0.00 0.00 48 1004.8
20260905210313 99 45 0.0 0.0 0.00 0.00 0.00 47 1004.7
20260905205314 99 147 0.0 0.0 0.00 0.00 0.00 47 1004.8
20260905204413 99 252 0.0 0.9 0.00 0.00 0.00 47 1004.8
20260905203432 99 157 0.0 0.0 0.00 0.00 0.00 48 1004.8
20260905201431 99 182 0.0 0.0 0.00 0.00 0.00 50 1004.9
20260905201314 99 157 0.0 0.0 0.00 0.00 0.00 49 1004.8
20260905200313 99 360 0.0 0.0 0.00 0.00 0.00 48 1005.0
20260905195313 99 337 0.0 0.0 0.00 0.00 0.00 49 1005.2
20260905193413 98 162 0.0 0.9 0.00 0.00 0.00 50 1005.3
20260905192513 99 225 0.0 2.6 0.00 0.00 0.00 51 1005.4
20260905191515 98 308 0.9 1.7 0.00 0.00 0.00 50 1005.6
20260905190530 98 219 0.0 0.9 0.00 0.00 0.00 53 1005.7
20260905185530 96 345 0.0 0.0 0.00 0.00 0.00 52 1005.7
20260905183512 96 197 0.0 1.7 0.00 0.00 0.00 53 1006.1
20260905182529 98 40 0.9 1.7 0.00 0.00 0.00 52 1006.4
20260905181514 96 225 0.0 0.0 0.00 0.00 0.00 54 1006.5
20260905180529 95 225 0.0 0.9 0.00 0.00 0.00 53 1006.7
20260905175613 96 225 0.9 1.7 0.00 0.00 0.00 53 1006.7
20260905174612 96 269 0.9 2.6 0.00 0.00 0.00 53 1007.1
20260905173614 96 64 0.9 1.7 0.00 0.00 0.00 56 1007.1
20260905172616 95 135 0.9 1.7 0.00 0.00 0.00 55 1007.2
20260905171712 95 146 1.7 4.3 0.00 0.00 0.00 56 1007.5
20260905170731 94 135 0.0 1.7 0.00 0.00 0.00 55 1007.5
20260905165829 94 90 0.0 0.0 0.00 0.00 0.00 57 1007.6
20260905164828 94 90 0.0 0.0 0.00 0.00 0.00 58 1007.8
20260905163814 93 308 0.9 2.6 0.00 0.00 0.00 58 1008.0
20260905162912 93 135 0.0 0.0 0.00 0.00 0.00 59 1008.3
20260905161914 94 203 0.9 3.5 0.00 0.00 0.00 58 1008.5
20260905161013 93 5 0.0 0.0 0.00 0.00 0.00 58 1008.5
20260905160030 94 174 0.0 0.0 0.00 0.00 0.00 60 1008.6
20260905155112 94 270 0.0 0.9 0.00 0.00 0.00 62 1008.7
20260905153113 92 76 0.0 0.9 0.00 0.00 0.00 64 1008.8
20260905153016 92 157 0.0 0.0 0.00 0.00 0.00 64 1008.9
20260905152014 92 157 0.0 1.7 0.00 0.00 0.00 64 1008.7
20260905151012 90 22 0.0 0.9 0.00 0.00 0.00 67 1008.9
20260905150015 90 314 0.9 2.6 0.00 0.00 0.00 67 1009.0
20260905143128 88 135 0.0 0.0 0.00 0.00 0.00 72 1009.2
20260905141312 87 135 0.0 1.7 0.00 0.00 0.00 75 1009.4
20260905135413 85 315 0.0 0.0 0.00 0.00 0.00 78 1009.5
20260905134429 84 315 0.0 0.0 0.00 0.00 0.00 84 1009.5
20260905133513 82 140 0.0 0.0 0.00 0.00 0.00 88 1009.5
20260905132528 81 112 0.0 0.0 0.00 0.00 0.00 89 1009.5
20260905132414 80 112 0.0 0.0 0.00 0.00 0.00 90 1009.5
20260905131414 79 111 0.0 0.9 0.00 0.00 0.00 93 1009.6
20260905125429 77 337 0.0 0.0 0.00 0.00 0.00 99 1009.8
20260905123528 77 315 0.0 0.0 0.00 0.00 0.00 100 1009.6
20260905121613 75 315 0.0 0.0 0.00 0.00 0.00 100 1009.4
20260905121512 75 315 0.0 0.0 0.00 0.00 0.00 100 1009.4
20260905115611 74 315 0.0 0.0 0.00 0.00 0.00 100 1009.3
20260905114627 73 315 0.0 0.0 0.00 0.00 0.00 100 1009.5
20260905113714 73 315 0.0 0.0 0.00 0.00 0.00 99 1009.4
20260905111815 72 315 0.0 0.0 0.00 0.00 0.00 99 1009.3
20260905110829 72 315 0.0 0.0 0.00 0.00 0.00 98 1009.2
20260905104912 73 315 0.0 0.0 0.00 0.00 0.00 99 1008.9
20260905102914 72 315 0.0 0.0 0.00 0.00 0.00 97 1008.8
20260905101912 72 315 0.0 0.0 0.00 0.00 0.00 97 1008.8